Theta_e
326 327 328 328 327 327 325 324 323 323 323 323 324 324 326 328 328 327 325 325 325 324 324 325 326 326 326 325 324 324 325 326 326 327 329 330 331 331 331 331 330 330 331 331 332 332 332 332 333 334 334 334 335 335 335 335 334 334 336 337 338 338 338 339 339 339 341 342 342 342 341 340 341 339 337 337 338 339 340 341 341 341 340 339 339
324 325 325 326 326 325 324 323 323 323 324 324 325 325 326 328 328 328 327 326 325 324 324 325 325 326 326 325 325 325 325 325 325 326 326 327 328 330 331 331 331 331 331 332 332 332 332 332 332 333 334 334 335 334 335 335 334 334 336 336 336 336 338 339 339 339 340 341 342 342 342 341 341 339 338 336 336 337 339 340 340 340 339 339 338
321 322 323 324 325 324 323 323 323 324 325 326 327 327 327 328 328 328 327 327 326 324 324 325 325 325 325 325 325 326 326 326 327 326 325 325 325 326 328 329 330 331 331 331 332 332 333 333 333 334 334 334 335 335 335 334 334 335 335 335 335 335 336 339 340 339 338 339 341 342 343 342 341 341 339 336 336 336 338 340 340 339 339 339 338
320 323 323 323 323 322 322 323 324 324 325 326 327 327 328 329 329 328 328 327 327 326 325 325 325 324 324 324 325 325 325 326 326 327 326 325 325 325 327 328 329 330 330 331 331 331 332 333 334 333 333 334 335 335 334 334 334 335 335 335 335 335 335 337 339 340 339 339 341 342 343 343 342 341 340 337 335 336 337 339 340 340 339 338 337
321 323 323 322 321 321 322 323 323 323 324 325 326 327 328 328 328 328 328 327 327 327 325 326 325 324 323 324 323 323 324 324 326 327 326 325 326 327 329 330 330 331 331 332 332 331 332 332 332 333 334 334 335 335 335 335 334 335 334 334 334 335 336 337 338 340 340 340 341 342 343 342 342 341 340 337 336 336 337 339 341 341 340 338 337
322 323 322 322 321 321 322 323 323 322 321 321 323 325 326 327 327 327 328 327 328 327 326 327 326 323 323 323 321 320 321 322 324 325 325 324 325 326 328 329 330 331 332 333 333 333 332 332 332 332 333 334 335 335 335 335 335 335 334 333 333 334 335 336 338 339 340 340 341 341 341 341 341 341 340 337 335 337 337 339 341 342 341 339 337
322 322 321 321 321 321 323 323 321 320 320 319 320 322 324 326 326 327 328 328 328 328 328 327 325 323 323 322 320 319 320 321 323 324 324 324 324 324 325 326 327 329 330 332 334 334 333 333 333 333 333 333 333 334 335 335 335 335 334 333 333 334 335 336 337 337 337 338 340 341 341 341 341 341 340 337 335 338 338 339 341 343 343 342 339
322 320 320 321 321 322 323 322 322 321 320 320 319 319 322 325 326 327 328 328 328 329 329 328 325 323 324 322 320 320 321 322 324 325 325 324 325 326 326 325 325 327 327 329 332 334 333 333 333 333 333 333 333 333 334 335 335 334 334 334 334 335 336 336 336 335 334 336 339 341 341 342 341 341 340 337 336 338 339 339 341 343 343 343 341
321 321 320 321 322 322 322 322 322 322 321 321 320 319 320 323 325 327 328 328 328 328 329 327 325 323 324 323 321 320 322 324 325 325 325 324 326 328 328 327 326 326 326 326 330 333 334 334 333 333 333 333 333 333 333 333 334 334 335 335 335 336 336 336 336 335 334 335 338 340 341 342 341 340 338 336 335 337 338 339 341 342 343 344 343
322 321 322 322 322 322 322 322 323 323 323 323 323 322 322 323 325 326 327 328 328 328 328 327 325 324 324 324 322 322 322 324 325 325 324 325 327 328 329 329 328 328 327 326 328 331 334 335 334 333 333 333 333 333 332 332 333 334 334 335 334 335 336 336 336 336 335 335 337 339 340 340 339 338 335 333 333 336 337 338 340 341 342 343 343
322 322 323 324 324 324 324 324 323 323 324 324 325 325 324 324 325 326 327 327 327 327 327 326 325 325 325 325 324 323 324 325 325 324 324 326 328 328 329 331 332 332 330 328 328 330 332 333 333 332 333 333 334 334 333 333 333 334 334 334 334 334 335 335 335 336 335 335 335 336 338 338 336 334 332 331 333 335 335 337 338 339 340 343 343
323 323 325 326 326 326 326 326 325 324 323 322 324 325 325 325 325 326 327 327 327 327 326 326 325 325 325 325 324 325 326 326 325 323 323 326 327 326 326 327 329 332 333 332 331 331 331 332 332 332 331 332 333 333 334 333 334 334 334 335 334 334 334 333 334 335 335 335 335 335 336 336 335 334 332 331 332 334 336 336 337 338 340 341 343
323 323 326 327 328 328 327 326 325 324 322 320 321 323 324 325 325 325 326 327 326 326 325 325 325 325 325 325 325 326 327 326 324 322 323 325 326 324 324 323 324 327 331 333 333 333 333 334 334 333 332 331 331 332 333 334 334 333 334 334 335 335 334 333 333 334 335 335 335 334 334 335 335 334 331 331 334 335 336 336 336 337 338 340 341
324 325 326 327 329 329 328 327 325 322 320 318 318 320 322 324 325 325 326 326 325 325 325 325 325 325 325 325 326 327 328 326 324 322 322 324 325 324 322 322 322 323 327 330 331 332 333 334 334 333 332 332 332 332 333 335 335 334 334 335 335 335 336 335 334 334 335 336 336 335 334 333 334 335 335 337 337 337 336 336 335 335 338 340 341
325 326 327 328 328 329 329 328 324 321 319 319 319 320 321 324 325 325 326 326 326 325 325 325 325 324 324 324 326 327 328 326 324 323 322 321 323 323 322 322 322 322 325 327 329 330 331 331 332 332 332 332 333 333 334 335 336 335 335 335 335 335 336 336 335 335 336 336 337 337 334 333 334 336 337 338 339 338 338 337 334 335 338 340 340
325 326 327 328 328 329 329 327 323 321 320 320 321 321 322 325 326 325 326 326 325 325 325 324 324 323 323 324 326 327 327 324 323 323 322 321 321 322 322 322 321 321 323 326 327 329 330 330 331 333 333 334 334 335 335 335 336 336 337 337 338 337 337 336 335 336 336 337 337 337 335 334 335 337 337 338 339 338 338 337 335 336 339 341 339
323 324 327 328 327 329 330 326 322 322 322 322 321 322 323 325 325 325 325 325 325 325 325 323 323 323 322 323 326 327 325 324 323 321 321 321 321 321 321 322 321 319 320 323 326 328 329 329 331 333 334 335 336 336 336 336 337 337 338 339 339 338 338 337 336 336 336 337 338 336 334 336 338 339 338 340 340 339 338 338 337 337 340 341 339
322 324 325 326 326 328 328 325 322 322 322 322 322 322 323 324 325 325 325 325 325 325 324 322 322 323 322 322 325 326 324 323 322 320 319 320 321 321 321 322 321 318 318 320 322 325 327 328 329 331 333 335 337 338 338 338 338 338 339 340 339 338 337 337 337 337 337 337 336 335 336 338 339 339 340 341 341 340 339 339 338 338 340 339 337
323 324 325 325 326 326 325 323 323 323 322 322 322 323 324 324 325 324 324 324 324 325 323 322 323 324 323 321 322 324 325 323 322 320 318 318 319 320 321 322 321 318 317 318 318 320 323 325 328 329 331 334 335 337 339 339 338 338 339 340 339 338 337 336 337 337 336 336 336 337 338 340 340 340 341 341 341 341 340 339 339 339 339 338 338
323 324 326 325 325 324 324 324 324 323 323 322 322 323 324 324 324 323 322 323 324 324 322 322 323 324 324 322 320 321 324 324 322 321 321 319 318 318 319 322 323 320 318 319 320 319 319 321 325 327 328 330 333 335 338 339 339 338 340 341 341 339 338 338 337 337 336 335 337 338 340 341 340 341 341 341 341 340 339 339 339 338 338 339 341
323 324 324 325 324 323 324 325 324 323 324 323 322 322 323 323 322 321 321 321 322 322 321 322 323 323 324 323 320 319 323 324 322 321 322 321 320 318 318 321 324 322 320 320 321 321 318 319 322 324 325 327 330 332 335 337 338 339 339 339 340 340 339 338 337 336 336 336 337 339 340 340 340 340 340 340 340 339 339 339 338 337 338 340 340
323 324 324 323 323 324 324 324 323 323 324 323 322 322 322 322 321 321 321 321 321 321 321 321 322 323 323 324 322 319 321 323 321 320 320 322 322 320 319 321 323 324 322 321 321 322 320 318 319 321 322 324 326 327 329 332 335 337 337 337 338 338 338 338 337 337 336 337 337 338 338 338 339 339 339 339 339 339 339 339 339 338 339 339 338
323 324 323 323 323 324 324 323 323 323 324 323 323 322 322 321 321 321 322 322 321 321 321 321 322 322 323 324 324 322 320 320 320 320 319 320 321 321 321 322 323 324 324 322 322 323 321 319 319 320 321 321 322 323 325 327 329 332 334 334 336 337 336 336 337 338 337 336 336 336 336 337 337 337 337 337 338 339 340 340 340 340 340 338 335
323 324 323 323 323 324 325 324 323 323 324 324 323 322 322 322 322 322 322 322 321 321 321 321 321 321 322 323 324 323 321 320 320 320 319 319 320 320 321 322 324 324 324 324 324 324 322 320 320 322 322 321 321 320 321 323 326 328 330 331 333 334 335 335 335 336 336 336 336 336 336 336 336 336 336 337 338 340 341 340 341 341 340 338 335
323 323 323 323 323 323 325 324 323 323 323 323 323 322 322 322 322 322 322 322 322 322 322 321 321 321 321 322 323 323 323 321 320 320 320 319 320 319 318 320 323 323 323 324 325 325 324 322 321 323 324 324 323 321 319 320 323 325 328 329 330 332 333 334 335 336 336 336 336 335 336 336 336 336 337 338 338 338 339 339 338 339 337 336 335
323 324 323 324 323 323 324 323 322 322 322 322 322 322 322 322 322 322 322 322 322 323 322 322 321 321 321 321 322 323 323 323 321 321 321 320 321 320 318 318 321 321 322 324 324 324 325 325 323 324 324 325 325 324 322 320 320 321 323 325 326 328 330 331 333 334 334 334 334 334 334 334 334 333 334 335 335 334 334 336 337 338 337 335 334
323 323 323 323 323 323 323 322 321 321 322 322 322 322 322 322 321 322 321 321 322 322 323 323 322 322 321 321 321 322 323 324 323 322 322 321 321 321 319 318 319 319 320 322 323 323 324 324 324 324 324 323 323 324 324 323 321 321 321 321 322 324 326 327 330 331 332 332 332 331 331 332 332 332 332 333 332 332 332 334 337 340 339 336 335
323 323 322 322 322 323 322 321 320 321 321 322 322 322 322 322 321 322 322 321 321 322 322 323 323 322 321 321 321 321 322 323 324 323 323 322 321 321 320 318 318 319 319 320 321 321 321 322 322 323 323 322 322 324 325 324 323 322 321 320 320 321 322 323 325 327 328 328 328 328 329 330 331 330 331 331 331 331 332 333 335 336 336 336 336
323 322 322 321 321 322 322 321 320 320 320 321 321 321 321 322 322 322 322 322 322 322 322 323 323 323 322 321 321 321 321 322 323 323 324 323 322 321 321 319 318 318 319 320 320 319 319 319 320 322 323 321 321 323 324 325 324 323 322 321 320 320 320 321 321 322 323 324 325 325 326 327 328 329 329 329 329 329 330 331 331 332 332 332 333
322 322 322 321 321 321 321 321 320 320 320 321 321 321 321 322 322 322 321 322 322 322 323 323 323 323 322 321 321 321 320 320 321 322 324 323 322 322 322 320 318 318 319 319 319 318 318 319 320 321 323 321 320 322 324 324 325 324 323 322 322 321 321 321 320 320 321 321 321 322 323 323 324 326 326 325 325 327 328 328 329 330 330 330 330
322 322 322 321 321 321 321 321 321 320 320 321 321 321 321 321 322 321 321 322 323 323 323 323 323 323 322 322 321 321 320 320 320 321 323 323 322 322 322 321 319 318 317 318 318 317 318 319 320 321 322 321 320 321 322 323 325 325 324 323 322 322 322 322 321 321 321 321 320 320 321 320 321 322 323 322 322 323 325 326 326 327 329 330 330
322 323 322 321 321 321 320 320 320 320 321 321 321 321 322 322 322 322 322 323 323 323 323 323 323 322 322 322 321 321 321 320 319 320 322 323 323 323 322 321 320 318 317 317 317 317 319 320 320 321 321 320 319 320 320 321 323 324 324 324 323 323 322 322 321 321 321 322 322 321 321 320 320 319 320 320 320 320 322 324 325 326 327 328 327
322 321 320 320 320 320 320 320 320 320 320 321 322 322 322 322 323 323 323 323 323 323 323 323 322 322 321 321 321 321 321 320 319 319 320 322 323 323 322 322 321 319 318 317 317 316 318 320 321 322 321 320 319 320 320 319 321 324 325 324 324 323 323 322 322 321 320 321 322 322 322 322 321 321 320 320 320 319 319 320 322 324 325 325 324
320 319 318 319 320 320 320 319 319 319 321 322 323 322 322 322 323 323 323 323 323 323 322 322 321 321 321 320 320 320 320 319 319 319 319 320 322 323 322 322 322 320 319 318 317 317 317 318 321 322 322 321 320 321 320 319 320 323 325 324 324 323 323 323 322 322 322 321 321 322 323 323 323 323 323 322 322 321 320 320 319 320 322 323 323
318 318 318 319 320 320 320 320 320 321 321 321 321 321 322 322 322 323 323 323 322 322 321 321 320 320 320 319 319 318 318 319 319 319 319 320 321 322 323 322 322 321 321 321 320 319 319 319 320 322 322 322 321 322 322 320 319 321 322 322 322 323 323 324 324 324 324 324 324 323 323 323 323 324 323 322 323 322 323 323 322 321 322 323 324
319 320 320 321 321 320 320 321 321 322 322 322 321 321 322 322 322 323 323 322 321 321 321 320 320 320 319 318 318 318 319 319 319 319 320 320 321 322 322 322 322 322 322 322 322 322 321 321 321 322 322 322 321 322 322 321 320 320 320 320 321 321 321 323 324 324 325 325 325 325 325 324 324 324 324 323 322 322 322 323 323 323 323 324 324
321 321 321 321 320 320 320 321 320 321 322 322 322 322 322 322 322 322 322 321 321 321 320 319 319 319 318 317 317 318 319 319 320 320 321 321 321 322 322 322 322 321 321 321 321 321 322 322 322 322 323 323 322 322 322 321 321 321 321 321 321 320 320 321 322 323 324 324 325 325 325 325 325 324 325 325 325 324 323 324 324 324 323 323 323
322 322 321 320 319 320 320 321 321 321 322 323 323 322 321 321 321 321 320 320 320 319 318 318 318 317 317 317 317 317 318 319 319 320 320 320 321 320 320 321 320 320 320 320 320 320 321 321 322 322 323 323 323 322 322 322 321 321 321 321 321 321 321 321 321 321 322 323 323 323 324 325 325 324 324 325 325 324 324 323 323 323 324 323 323
322 322 321 320 321 321 321 322 322 322 322 322 322 320 320 320 320 318 316 315 313 312 313 314 315 316 316 316 316 316 317 318 318 318 319 319 319 319 319 319 319 320 319 319 320 319 320 320 320 321 322 322 323 323 323 322 322 322 321 321 321 321 321 321 321 321 321 321 321 322 323 324 324 324 324 325 325 324 324 324 323 323 324 324 323
322 322 321 321 321 321 322 322 322 321 321 321 320 318 318 317 315 313 312 311 310 309 309 311 312 313 313 314 314 315 316 317 317 317 316 316 316 317 317 317 318 318 319 319 319 319 318 319 319 319 320 320 321 321 322 322 322 322 322 322 321 321 321 320 320 320 320 320 320 321 322 323 324 324 324 324 324 324 324 325 325 324 324 324 324
322 322 322 322 322 322 322 322 321 320 320 320 317 315 313 312 311 311 310 309 309 309 308 308 310 311 312 312 313 315 315 316 316 316 315 314 314 314 315 315 315 316 316 317 317 317 317 317 317 317 318 318 318 319 319 320 320 321 321 321 321 321 321 321 321 321 321 321 321 321 322 323 323 323 323 323 323 323 324 325 325 325 324 324 324
322 322 321 320 322 322 321 320 320 320 318 316 313 311 310 310 309 309 309 308 308 308 307 307 308 310 311 311 313 314 315 315 314 314 314 314 313 314 314 313 313 314 314 315 315 315 315 316 316 316 316 316 316 316 317 317 318 318 319 319 320 320 320 320 320 321 321 322 322 322 322 323 323 323 322 322 322 323 323 324 324 325 325 325 325
322 321 321 320 321 321 320 320 319 317 314 312 311 310 309 308 307 307 307 307 307 307 306 307 308 309 309 310 311 312 313 313 313 313 312 311 311 313 313 313 312 312 312 313 313 313 314 314 314 313 313 313 313 313 313 313 314 315 315 316 317 317 318 319 319 319 320 320 320 321 321 322 322 323 322 321 321 321 322 323 323 324 323 323 324
320 320 321 321 321 320 319 318 316 314 312 311 310 308 307 306 304 305 306 306 306 306 306 307 308 308 308 308 309 310 310 311 311 310 309 309 309 309 309 309 309 310 311 311 311 311 311 311 311 311 311 311 310 310 310 310 311 311 312 312 313 313 314 315 316 316 317 317 317 318 319 319 320 321 321 322 322 322 322 322 322 322 322 322 322
319 320 320 320 319 318 317 315 313 312 311 309 308 306 305 303 302 303 304 305 306 306 306 307 307 307 308 308 308 308 308 308 308 307 307 308 308 307 306 306 307 307 308 309 309 309 309 309 309 309 309 309 309 309 309 309 309 310 310 310 310 310 310 311 312 312 313 313 314 314 315 316 317 317 318 320 321 321 322 323 322 321 321 321 321
318 318 318 317 316 315 314 312 311 310 309 308 306 304 302 301 301 301 303 304 305 305 306 306 306 306 307 307 307 306 306 306 305 305 305 305 305 305 305 305 305 306 306 306 306 306 306 306 306 307 306 306 306 306 306 307 307 308 308 309 309 309 309 309 309 309 310 310 310 311 312 312 313 314 315 316 317 319 320 322 321 321 321 321 321
316 315 315 314 313 312 311 310 309 308 307 306 304 302 300 300 300 301 302 303 303 304 304 305 304 304 304 304 304 304 304 303 303 302 302 302 302 302 303 304 304 304 304 303 303 303 303 303 303 303 303 303 303 303 303 303 304 304 305 305 306 306 307 307 308 308 309 309 309 309 310 310 310 311 311 312 314 315 317 319 320 320 321 321 321
313 312 312 311 310 310 309 308 308 307 306 303 301 300 299 300 300 300 300 301 302 302 302 302 302 302 302 301 301 301 300 300 300 299 299 299 299 299 300 301 302 302 301 301 300 301 301 301 301 301 301 301 301 300 300 300 300 300 300 300 301 301 302 303 304 305 306 307 308 308 308 308 309 309 310 310 311 311 313 314 315 317 319 320 320
311 310 310 310 309 309 308 307 306 305 303 301 300 299 299 299 299 299 299 299 300 300 300 300 300 300 299 299 298 298 298 298 298 297 297 297 296 296 297 297 298 299 299 299 299 299 299 299 299 298 298 298 298 297 297 297 297 297 297 297 297 297 298 298 299 300 301 302 303 304 305 306 306 306 307 307 308 309 310 310 311 312 314 316 317
309 309 308 308 308 307 306 305 304 303 301 300 299 299 298 298 299 299 298 298 298 298 298 298 298 298 298 297 297 297 297 296 296 296 296 295 295 294 293 293 294 295 295 295 295 296 296 296 295 295 295 295 294 294 294 293 293 293 293 293 293 293 293 294 294 295 295 296 297 299 300 302 302 303 303 304 305 306 307 308 308 309 310 311 312
306 306 306 306 305 304 304 303 302 301 300 299 299 299 298 298 298 298 298 298 298 298 298 298 297 297 297 297 297 296 296 296 295 295 295 294 293 292 290 290 291 291 291 292 292 292 292 293 293 292 292 292 292 292 291 290 290 290 290 290 290 290 291 291 291 292 292 292 293 294 295 296 298 299 301 302 303 304 305 305 306 307 307 308 308
Wind_Speed
16 14 14 14 13 14 15 17 18 19 20 21 22 20 19 17 17 18 18 18 18 19 19 20 20 22 22 22 22 21 21 21 22 23 24 24 26 27 30 32 33 35 36 37 37 37 39 39 40 41 40 39 38 36 36 34 33 34 34 34 34 35 35 35 37 41 42 40 37 35 32 30 27 24 21 19 17 16 14 14 14 14 16 17 19
15 13 13 12 12 13 15 16 17 19 20 22 21 19 18 17 16 17 18 17 17 17 18 19 20 22 23 23 22 22 23 24 24 24 25 25 25 26 26 28 31 33 35 37 38 38 40 40 40 40 40 40 39 38 37 36 34 33 33 33 34 36 36 35 35 38 41 40 38 36 36 35 32 28 25 22 20 18 18 16 15 15 16 17 19
15 13 13 11 11 12 14 16 17 18 19 20 20 19 17 16 16 17 17 16 16 16 18 19 20 22 23 24 23 23 25 26 26 26 26 26 26 27 27 28 29 31 33 36 37 38 39 40 39 38 38 38 38 37 36 35 34 34 33 32 33 35 35 35 34 36 40 39 37 37 37 38 36 32 28 24 22 21 21 20 18 17 17 18 19
15 13 12 10 10 11 13 15 16 17 19 19 19 19 17 16 16 17 19 18 17 17 18 20 21 22 22 23 24 25 26 29 29 29 28 27 27 27 27 27 29 30 31 34 36 37 39 40 38 36 36 36 35 35 35 34 34 35 35 33 33 33 34 34 34 35 38 38 37 36 37 38 37 33 29 25 23 23 24 23 21 20 19 20 21
14 12 11 10 11 11 12 14 15 16 18 19 20 20 18 17 17 19 20 21 20 18 18 19 21 22 21 21 23 24 27 30 30 29 28 28 28 27 26 25 27 28 29 31 34 36 37 39 38 36 35 34 33 33 34 34 35 35 35 35 35 35 34 33 33 34 36 38 37 35 35 37 37 34 30 26 24 24 25 24 23 22 22 21 22
13 12 11 11 10 11 12 14 15 16 18 19 20 20 19 18 19 20 21 21 20 18 17 19 22 23 21 20 21 23 24 27 28 29 30 31 31 29 27 26 28 28 27 27 30 34 37 37 37 37 36 34 34 34 33 34 35 36 36 36 36 36 36 35 33 32 34 38 38 34 33 36 36 35 32 28 25 25 25 25 25 24 23 23 23
12 11 11 11 10 10 12 13 14 16 18 19 19 19 19 19 19 20 20 20 18 17 17 18 21 22 20 20 22 23 24 25 27 29 32 33 33 31 29 28 27 27 27 26 26 30 35 37 37 37 36 36 36 36 35 35 35 36 38 37 36 37 37 36 34 31 30 32 34 32 31 34 35 35 32 29 27 26 26 26 26 26 24 24 24
11 11 11 10 10 10 11 12 14 16 18 19 20 19 19 19 19 19 19 19 17 17 17 18 19 19 19 20 22 23 25 26 28 29 32 34 34 33 32 30 27 26 27 27 25 26 30 35 37 37 37 38 38 38 38 38 38 38 39 38 36 37 37 37 35 33 32 31 31 32 32 32 33 34 33 31 30 28 27 27 26 26 25 25 25
9 9 9 9 9 9 10 12 14 16 18 19 19 19 19 19 19 18 18 18 17 17 17 17 18 18 18 19 21 23 25 27 27 28 31 34 36 35 32 29 28 27 26 26 26 25 27 31 33 35 37 39 40 40 40 40 40 40 40 39 37 37 37 38 37 34 33 32 31 32 31 30 32 33 34 34 32 29 27 27 26 25 24 25 26
9 9 8 7 8 9 10 12 14 16 17 18 18 19 19 19 19 18 17 16 16 17 17 16 17 17 18 19 19 21 23 24 24 26 30 33 35 34 30 28 27 27 27 27 26 26 27 28 29 31 33 35 38 40 41 42 42 43 43 42 41 40 38 38 37 36 34 33 33 33 32 32 34 36 35 34 31 28 28 27 27 25 24 25 25
11 9 8 8 8 10 11 13 15 15 16 17 18 19 19 19 19 17 16 16 16 17 17 16 16 17 17 19 19 19 21 20 20 24 29 31 33 33 30 27 27 26 26 27 27 26 27 29 31 31 32 33 35 36 38 41 43 44 45 46 46 45 42 40 39 37 36 36 36 36 36 36 38 38 36 34 31 29 28 27 27 26 25 25 25
12 11 9 9 10 12 13 14 15 16 17 18 18 19 19 20 20 18 16 16 17 17 17 17 17 16 17 19 19 20 20 19 20 24 27 29 31 33 33 31 30 27 23 23 25 26 28 30 31 33 34 35 36 35 36 38 40 43 45 46 47 48 47 45 43 40 38 37 37 38 39 38 39 39 37 35 32 30 28 27 26 26 25 25 25
14 13 11 11 13 14 15 16 16 17 18 19 19 19 20 21 20 18 16 16 16 16 17 17 16 16 16 18 20 20 21 20 21 24 26 27 29 32 35 34 33 30 23 18 19 21 25 27 29 32 33 34 36 37 38 39 40 42 44 46 48 49 49 48 47 45 43 40 39 40 40 38 38 38 36 33 31 30 29 27 25 25 25 25 24
15 15 14 14 15 16 16 17 17 18 19 20 20 19 20 20 18 16 16 16 15 16 16 15 15 15 16 17 19 20 21 22 22 24 25 26 28 31 34 35 34 32 27 21 17 16 19 24 28 32 33 33 36 38 38 39 40 41 42 45 48 49 50 50 49 47 45 43 42 41 38 35 34 34 32 31 30 30 28 26 24 24 25 23 21
16 16 16 16 16 17 17 17 17 19 20 20 18 17 18 18 16 15 15 15 15 15 14 14 15 16 17 18 17 17 19 21 22 23 24 26 28 30 33 35 36 32 28 25 20 16 18 23 28 33 36 36 37 39 39 38 39 40 41 43 45 48 51 51 51 49 46 43 43 42 38 34 31 29 29 29 29 28 27 24 24 25 24 22 20
17 17 17 17 17 17 17 17 18 19 20 20 17 16 16 16 15 15 15 15 14 13 13 15 16 16 18 18 16 15 16 19 22 23 24 25 27 30 31 34 36 34 29 25 20 16 17 20 23 26 30 32 33 36 38 38 38 40 41 42 43 45 49 50 50 49 46 42 41 40 36 32 29 28 28 29 28 26 24 24 25 26 24 23 23
17 18 18 18 18 17 16 16 17 19 20 19 17 16 15 15 15 15 16 15 13 13 14 15 15 16 18 17 16 14 15 17 20 22 23 24 25 28 30 32 35 36 32 26 22 21 24 26 28 28 23 20 23 27 32 35 36 36 39 41 41 41 44 46 46 45 43 40 38 35 31 29 28 28 28 27 25 23 24 25 27 26 26 26 26
16 17 17 17 16 15 15 15 16 18 18 17 15 14 14 14 14 15 16 16 14 13 15 15 15 17 18 17 15 15 14 16 19 20 22 24 25 26 28 29 32 35 35 32 27 24 25 26 26 28 26 18 15 16 20 26 30 32 35 37 38 39 40 40 41 41 38 35 33 30 28 28 28 28 27 25 24 24 26 26 26 26 27 27 26
15 15 15 14 13 13 14 14 14 15 15 14 14 14 14 13 14 14 15 15 13 13 14 14 15 17 19 18 16 16 16 16 18 19 21 23 25 26 26 26 28 33 36 37 35 29 25 24 23 24 26 24 17 10 11 16 21 28 34 37 37 38 37 36 36 36 35 32 30 29 28 29 28 28 26 24 24 25 25 25 25 27 26 24 23
14 15 15 13 12 12 13 14 14 13 13 13 13 14 14 14 15 15 15 14 12 12 13 13 14 17 19 19 18 18 18 17 18 19 20 21 23 25 26 25 25 29 33 35 37 36 32 27 24 24 25 27 25 16 7 11 16 22 30 36 37 36 34 32 31 32 32 32 31 30 30 30 29 27 25 23 23 24 23 24 26 26 23 21 20
15 17 16 13 12 12 13 15 15 14 14 14 13 13 14 15 16 15 15 14 12 13 14 14 15 17 18 19 19 18 18 18 18 18 20 20 21 23 26 25 24 25 29 31 33 37 37 32 27 25 25 28 30 27 15 2 14 20 22 24 27 29 28 27 27 28 29 30 29 29 30 30 28 26 24 23 22 22 23 26 27 24 20 20 20
17 16 16 14 14 14 14 15 16 15 15 13 12 13 14 15 15 14 14 13 13 13 14 15 16 17 17 18 18 17 17 17 17 18 19 20 20 21 23 25 24 23 25 28 29 32 34 33 28 26 29 30 29 29 26 17 8 13 14 13 16 19 21 22 24 25 25 25 25 26 27 28 27 26 24 23 23 24 26 28 27 24 21 20 20
18 17 17 17 16 16 16 16 16 16 15 13 11 12 12 13 13 13 13 13 13 13 14 15 16 18 18 17 17 16 15 15 16 17 18 19 20 20 21 22 24 23 23 25 26 26 28 30 29 29 32 34 32 30 30 28 21 16 12 7 7 11 13 16 20 22 22 22 22 23 24 24 24 24 24 24 25 26 26 26 25 24 22 21 18
19 19 19 19 19 20 19 18 17 17 16 13 11 11 12 11 12 13 14 15 15 15 15 15 16 17 18 17 16 16 14 13 13 14 16 17 18 19 20 20 21 22 22 22 23 23 23 25 28 30 32 34 34 33 32 29 24 20 18 13 7 4 6 12 18 21 21 21 21 21 21 21 21 22 24 25 26 27 26 25 24 21 18 17 16
18 19 19 20 21 22 22 20 18 17 16 14 12 12 13 13 12 13 15 16 16 16 15 15 15 16 17 17 16 16 14 13 13 12 13 15 15 17 19 19 18 19 20 19 20 20 19 19 22 25 27 29 29 30 31 31 27 22 18 15 13 11 7 7 16 23 23 21 20 20 20 20 20 20 21 22 25 26 26 26 24 19 16 15 14
18 18 18 19 21 22 21 20 18 17 15 14 13 12 13 14 14 14 15 16 16 15 15 15 15 15 16 16 16 16 14 13 13 12 12 14 14 14 16 18 18 18 18 18 19 18 16 16 19 20 22 24 25 25 26 27 29 28 24 20 18 15 13 10 12 19 22 23 23 22 21 20 20 18 18 17 18 20 23 23 20 18 18 18 16
19 18 18 19 20 21 19 18 17 16 16 17 16 13 11 13 14 14 15 16 16 15 14 14 15 15 15 16 16 15 14 13 13 14 13 14 15 15 15 16 16 17 17 16 16 16 16 16 16 17 18 19 20 21 21 21 23 26 27 26 23 19 15 13 10 11 15 17 19 19 19 20 19 18 18 16 14 14 18 21 17 13 16 21 20
20 20 19 19 19 18 17 17 17 16 17 19 18 14 10 11 13 14 14 15 15 15 15 14 14 14 14 15 15 15 14 13 14 15 15 15 16 17 16 15 15 15 15 15 13 13 14 14 14 13 14 15 17 16 16 17 18 20 22 23 24 23 20 17 12 10 9 9 11 12 13 15 16 16 16 15 13 11 12 15 12 6 8 14 15
20 20 19 18 17 16 17 18 18 17 18 18 18 15 12 12 13 14 14 15 15 15 15 14 14 13 14 14 15 14 14 14 14 14 15 15 15 17 17 17 15 14 14 14 13 13 13 13 13 12 12 14 17 16 14 14 16 16 17 19 22 25 24 21 18 15 11 8 6 8 9 11 11 11 10 11 12 12 11 11 9 6 6 9 9
19 20 19 18 17 17 19 20 20 19 18 18 18 17 15 14 15 15 16 16 15 14 15 14 14 13 13 13 14 14 14 14 13 13 13 14 14 16 17 17 16 14 13 12 11 12 13 13 12 12 11 13 17 17 13 12 13 14 14 15 18 21 23 24 23 21 18 14 10 8 7 7 6 6 5 5 8 10 10 9 8 7 7 8 10
19 19 20 19 18 18 19 19 18 17 16 16 18 18 17 16 15 15 15 15 14 14 14 14 13 13 13 13 13 13 14 14 13 13 12 12 13 15 16 17 16 15 13 12 11 10 12 13 13 12 10 11 14 16 15 13 11 11 12 13 14 16 19 21 22 22 21 20 17 14 11 10 7 5 4 3 5 7 8 9 8 7 7 8 10
21 20 22 22 21 20 19 17 16 16 16 17 18 18 17 15 14 12 12 13 12 12 12 13 13 13 14 13 13 13 13 13 13 13 11 10 11 13 15 16 16 15 13 12 11 10 11 13 14 13 11 11 11 13 15 15 13 10 10 12 12 12 13 16 18 20 21 21 20 19 17 15 13 10 7 5 5 5 7 9 9 8 8 8 9
24 25 27 26 24 22 21 19 17 16 17 18 19 17 14 13 12 10 9 9 10 10 11 12 12 13 13 13 13 13 13 13 13 12 11 9 8 9 12 15 15 15 14 12 12 11 10 12 13 13 12 11 10 10 12 15 14 11 8 9 10 10 10 11 13 15 16 17 18 17 17 16 16 14 11 9 7 6 5 6 7 7 7 6 5
24 25 25 24 23 22 20 18 17 18 19 19 17 14 12 11 9 7 5 5 7 8 9 10 11 11 11 12 12 12 12 12 12 12 11 9 8 7 8 10 11 12 13 12 12 12 11 11 12 12 12 11 10 9 10 12 14 12 9 8 9 9 8 8 8 10 11 12 13 13 13 13 13 13 13 11 9 7 6 4 3 4 4 3 2
20 19 17 17 18 18 17 17 17 17 17 15 13 13 13 11 7 4 3 3 4 5 5 6 7 8 9 10 10 10 10 10 11 11 11 9 8 6 6 6 7 9 11 12 12 13 12 10 10 11 12 12 10 9 8 10 12 12 10 9 9 9 8 5 4 4 5 6 6 6 7 7 8 9 10 9 8 8 7 5 2 3 3 3 3
15 15 15 15 15 15 17 17 15 14 13 11 11 11 11 8 5 1 1 2 3 4 5 5 6 6 7 8 9 10 10 11 11 12 11 10 8 7 6 5 6 8 9 10 11 11 11 11 10 10 10 11 10 9 7 7 9 11 10 8 8 8 7 6 4 4 4 5 5 5 4 3 4 4 5 5 5 4 4 4 2 2 4 4 3
12 13 15 14 13 14 16 16 15 15 14 10 7 7 6 5 2 2 4 4 4 5 5 5 4 3 4 7 9 11 11 11 11 10 10 9 8 7 6 6 7 8 9 10 10 11 10 10 9 9 9 9 10 9 7 6 7 8 8 8 7 7 6 5 4 4 4 5 6 6 6 5 4 3 2 2 2 2 1 1 2 3 4 4 4
11 13 15 13 11 12 14 13 11 11 10 6 4 4 4 3 3 5 6 6 7 8 8 7 6 6 6 7 8 10 11 11 9 8 7 7 7 8 8 8 8 8 9 10 11 11 10 10 9 8 7 7 8 8 7 5 5 5 5 6 6 6 5 4 3 2 3 4 4 5 6 6 5 5 5 4 3 2 2 3 5 5 5 6 6
12 15 15 13 11 11 11 8 6 6 5 3 3 2 2 4 6 7 9 10 12 12 12 11 10 10 9 9 9 10 10 9 9 9 9 8 8 9 9 9 9 9 10 10 11 11 11 11 10 9 8 6 6 6 6 5 5 4 4 4 4 4 4 3 3 3 3 3 3 4 5 6 6 6 7 8 7 5 3 4 5 7 7 7 7
15 17 16 14 12 9 7 6 6 5 3 3 2 2 5 8 10 12 13 14 15 15 15 14 12 12 12 12 12 11 10 10 11 12 12 11 10 10 10 11 12 11 11 11 11 12 12 11 11 10 9 9 8 7 6 5 4 4 4 4 4 4 4 4 4 4 4 4 4 4 5 6 6 6 7 8 8 6 5 4 5 6 7 8 8
16 15 13 12 11 8 6 6 5 4 2 2 3 7 10 12 13 14 15 16 15 15 14 13 12 12 12 12 11 10 9 9 9 10 11 11 11 12 13 13 12 12 12 12 12 12 12 11 11 11 12 12 12 11 10 8 7 5 5 5 5 5 4 4 4 4 4 4 4 5 5 6 6 5 5 5 5 6 6 7 7 7 8 9 9
13 9 6 8 8 6 3 3 2 2 3 4 7 10 12 13 15 15 15 15 14 13 12 11 9 9 9 10 9 8 7 6 7 8 8 8 9 11 12 11 10 11 11 12 12 12 12 12 12 12 13 14 14 14 13 13 12 11 9 8 7 6 6 5 5 4 4 4 4 5 6 7 8 7 6 5 5 6 7 8 9 10 10 10 11
9 5 3 4 3 1 1 3 4 4 4 7 10 12 14 15 16 15 13 13 12 11 9 7 6 6 7 8 7 7 6 5 5 5 5 7 9 9 8 8 9 11 12 11 12 12 12 12 13 13 13 14 15 16 16 16 16 15 14 13 12 11 10 9 8 8 7 6 6 6 6 7 8 9 9 8 8 8 8 8 9 10 10 11 12
7 5 3 3 1 1 1 2 3 4 6 9 12 14 15 16 15 14 12 11 9 7 5 4 4 4 5 5 5 6 5 3 2 4 7 8 8 9 8 8 9 10 10 10 10 10 10 11 11 11 11 12 13 14 14 14 14 15 15 15 15 14 14 13 12 12 11 11 10 9 9 8 9 9 8 9 10 10 9 9 10 10 10 10 10
5 4 3 2 2 1 1 2 4 6 8 11 13 14 15 14 13 11 9 8 7 5 3 2 2 2 2 3 3 4 4 4 6 8 8 6 5 6 7 7 8 8 8 7 7 7 8 9 9 9 10 10 11 11 11 11 10 11 11 12 13 14 14 14 14 14 13 13 13 12 12 11 11 10 9 8 8 8 7 7 9 10 10 10 10
5 4 3 3 3 3 4 5 7 8 11 12 14 14 13 12 10 9 8 7 6 5 3 2 2 2 2 4 4 4 5 6 8 8 8 6 5 5 6 6 7 8 8 8 8 8 9 9 9 9 10 10 10 10 10 9 9 9 9 10 11 11 11 11 11 12 12 12 13 12 12 12 12 12 11 9 7 5 4 5 7 9 9 9 9
5 5 5 5 5 6 6 8 9 10 12 14 13 12 11 10 9 9 7 6 6 5 4 4 3 3 3 4 4 5 5 6 6 7 7 7 7 7 7 8 9 10 11 11 11 11 10 10 10 10 10 10 11 11 11 10 10 10 10 10 10 10 10 9 9 10 11 11 11 11 11 11 12 12 12 11 10 7 4 4 6 7 8 9 8
7 7 7 7 7 7 8 9 10 11 12 12 11 10 10 10 10 10 9 7 6 5 4 3 3 3 4 4 4 5 5 5 6 7 7 8 8 8 9 10 10 11 12 12 12 12 13 13 13 13 13 13 13 13 13 13 12 12 12 12 11 11 11 11 11 10 11 11 12 12 12 12 12 12 12 13 13 11 9 7 5 4 6 8 9
8 8 8 7 7 7 8 9 10 10 10 10 9 9 10 11 12 13 12 10 8 7 6 5 5 5 6 6 6 6 6 7 7 8 9 10 11 11 10 11 12 12 12 13 13 13 13 14 14 15 15 15 15 15 14 14 13 13 12 12 11 11 11 11 11 12 12 12 13 14 14 15 15 15 15 15 15 14 14 13 11 8 6 5 7
8 8 7 7 7 6 7 7 8 8 8 7 8 9 11 12 13 13 12 11 10 9 9 8 7 8 8 9 9 9 10 10 11 11 12 12 13 12 11 10 10 11 11 11 12 12 13 13 13 14 14 14 14 14 14 14 13 13 12 12 12 12 11 11 11 12 12 12 12 13 14 14 15 15 15 15 15 15 16 16 15 13 11 9 7
7 6 6 5 5 5 6 6 6 6 6 7 8 10 11 12 12 12 11 10 10 9 9 8 8 9 9 9 10 11 12 12 13 14 15 15 15 14 11 8 7 7 8 9 9 9 10 10 11 12 13 13 14 14 14 15 15 14 13 13 13 12 12 12 12 11 11 11 11 12 12 12 13 14 14 14 14 14 13 14 15 15 15 13 11
Wind_Direction
324 324 320 318 317 317 320 323 325 325 327 328 327 326 326 326 327 329 331 333 334 336 339 340 341 341 342 340 334 329 323 317 309 303 297 291 286 282 277 273 270 267 265 262 259 257 256 256 256 256 257 259 260 257 255 256 254 249 244 241 239 240 240 241 245 250 254 255 253 249 247 249 247 244 245 246 246 249 250 248 248 250 252 255 256
322 320 316 312 310 312 317 320 322 325 329 330 328 324 321 321 321 323 328 332 332 336 340 339 338 338 339 339 337 334 331 325 317 309 301 295 290 286 282 278 275 272 268 264 261 259 258 258 257 257 258 259 260 258 256 254 251 247 245 243 241 241 240 239 239 245 250 252 251 247 245 247 248 246 245 246 247 249 251 252 251 249 252 256 258
319 313 309 303 300 306 312 317 320 326 334 336 334 329 322 319 320 322 326 328 329 333 335 334 335 334 336 336 334 332 331 328 324 317 309 301 294 289 287 284 281 277 272 267 262 258 257 258 257 257 257 256 256 256 254 252 248 245 246 245 243 243 242 240 238 241 247 251 250 247 243 244 247 248 247 248 250 249 248 252 253 252 253 257 259
313 306 304 300 298 303 310 316 320 329 338 340 339 338 332 325 324 323 323 322 321 325 329 330 332 331 331 333 331 330 330 328 324 320 317 311 303 296 293 289 285 281 276 270 264 259 257 256 256 256 255 252 251 251 250 249 246 244 246 246 244 243 243 242 241 242 246 250 251 248 243 243 246 249 250 250 249 247 246 249 252 252 253 255 258
307 302 303 303 304 308 314 318 322 331 339 340 340 341 340 335 330 325 322 319 315 317 320 324 330 331 331 333 333 331 331 331 328 326 325 322 315 309 302 297 294 289 282 273 265 260 257 256 254 253 250 247 247 247 246 246 246 245 246 248 247 245 244 243 245 246 247 248 250 250 245 243 245 249 251 251 248 246 245 246 249 252 253 252 254
303 302 303 305 310 315 318 322 327 332 336 337 336 337 339 337 333 329 326 322 319 316 313 318 327 331 333 338 337 335 335 336 335 334 332 329 324 318 310 302 298 295 291 281 268 260 257 256 254 251 249 247 247 247 245 245 246 247 248 250 250 247 245 244 245 250 251 248 248 250 247 244 245 248 251 251 248 247 246 246 248 252 254 251 251
301 301 301 304 310 316 320 325 332 334 333 332 331 331 332 333 331 329 328 326 325 321 316 320 326 330 337 343 340 336 336 335 334 334 332 331 328 323 316 307 299 294 293 289 276 263 257 254 253 252 250 249 248 248 247 245 246 248 251 251 249 247 245 244 245 250 255 251 246 246 247 245 245 247 249 250 249 247 246 247 249 253 256 257 255
298 300 300 306 311 315 320 326 331 332 330 329 327 326 327 327 327 325 323 324 325 324 323 324 326 329 337 343 340 336 333 328 326 329 331 331 331 328 321 314 305 295 291 287 279 267 258 253 252 252 250 250 250 248 247 246 246 250 252 250 247 244 243 244 245 248 253 251 245 245 247 246 244 245 246 248 247 246 245 249 254 257 261 264 260
296 301 304 311 315 315 320 324 327 329 330 329 326 323 321 322 323 321 318 319 322 324 325 323 324 327 333 339 340 336 330 323 322 330 335 335 334 333 328 320 312 303 293 284 274 268 262 254 251 254 253 251 252 252 250 250 249 248 248 246 245 242 242 243 244 244 245 246 243 243 243 242 242 242 244 245 244 243 245 251 257 262 269 271 265
292 301 307 315 320 321 323 324 325 327 331 331 327 323 320 318 319 318 315 316 320 325 325 323 323 324 328 334 334 333 332 325 325 336 342 340 340 340 335 328 320 310 299 287 273 264 264 261 257 259 257 253 252 253 253 251 250 248 247 247 246 244 240 240 241 240 239 239 241 242 240 241 242 242 243 244 243 242 245 251 259 267 275 275 268
287 294 304 312 317 322 323 321 321 323 326 326 324 322 321 318 317 314 312 314 318 321 322 323 324 323 323 325 325 328 331 329 335 346 348 348 352 356 352 342 330 317 304 294 282 269 263 263 263 264 263 260 256 253 253 251 250 249 248 249 248 246 243 241 239 238 238 238 240 241 241 242 242 242 242 244 244 243 244 251 261 269 273 273 270
288 287 299 309 311 316 319 316 315 316 316 317 319 319 319 318 316 311 308 310 314 318 320 322 325 324 321 319 321 326 330 333 344 353 353 354 358 2 2 356 344 330 310 295 291 285 276 273 272 270 268 266 261 258 256 253 250 248 247 247 248 248 247 244 241 239 238 239 240 240 242 243 244 243 243 243 243 244 245 252 262 268 271 272 272
289 285 292 301 304 310 314 312 310 310 310 313 315 315 317 318 317 311 305 306 311 317 320 322 325 324 322 321 322 325 332 340 348 352 352 353 355 359 3 2 356 348 331 302 290 290 285 281 279 277 273 268 263 261 258 255 252 248 245 243 244 245 245 246 245 243 243 245 245 243 243 245 247 246 245 244 244 244 246 252 260 264 268 272 274
292 288 287 290 295 302 308 310 307 306 308 312 311 312 316 318 318 312 304 304 311 318 321 324 327 328 330 330 328 329 336 342 346 349 352 352 353 358 3 4 2 360 350 331 306 289 283 279 276 277 275 268 263 260 256 254 252 250 245 241 239 240 241 242 243 243 244 245 246 245 244 245 248 248 246 245 245 245 247 252 257 262 267 270 269
294 291 286 286 289 295 302 305 304 305 311 314 312 312 315 317 317 312 304 306 315 320 323 327 330 334 338 336 334 336 339 339 343 350 353 351 352 357 2 5 6 6 2 352 335 315 305 298 287 280 274 268 265 260 256 253 250 247 245 241 237 236 237 239 240 241 240 240 241 242 241 242 245 244 243 245 246 248 251 253 254 258 263 261 255
296 293 290 289 290 293 298 301 303 307 312 314 312 312 313 314 314 310 305 310 317 319 325 332 333 335 337 335 335 339 339 338 343 352 354 350 352 357 2 7 9 11 11 5 359 3 3 350 333 312 287 269 264 261 257 255 251 245 242 239 236 235 234 235 237 238 236 236 238 239 239 239 240 239 240 243 245 246 246 247 250 253 253 251 250
300 297 294 292 292 294 294 295 302 308 311 312 311 310 311 310 310 310 309 313 316 316 325 335 335 333 334 334 334 338 341 339 342 352 356 352 352 359 3 7 11 14 16 13 11 23 30 24 11 354 325 283 263 260 255 254 251 242 235 234 234 234 233 233 232 232 232 232 234 235 235 234 234 235 237 240 241 238 237 241 245 246 244 244 249
303 301 297 293 291 290 287 290 302 309 312 314 313 311 311 309 309 312 314 315 315 314 322 332 335 334 335 335 335 337 341 341 343 351 359 358 357 2 6 7 11 16 19 18 16 19 24 24 18 7 354 332 293 268 253 249 244 233 226 228 230 230 229 227 224 224 225 225 226 228 229 229 231 232 233 234 233 232 235 239 242 242 240 242 249
300 297 292 286 281 281 281 286 299 307 313 318 319 317 316 313 312 316 318 316 314 313 318 327 334 338 339 337 335 334 335 339 345 351 359 1 2 6 8 7 11 17 19 18 18 19 21 23 22 16 10 3 345 304 255 241 233 223 221 223 225 226 224 219 217 219 217 214 215 220 224 228 231 231 230 228 228 231 234 238 240 239 238 242 247
291 288 285 278 274 278 281 284 291 299 307 316 321 319 316 315 316 318 319 317 312 310 315 320 327 335 340 339 334 329 330 336 342 347 354 360 3 8 11 7 8 15 19 18 17 18 22 26 28 26 23 23 20 7 304 237 219 217 220 220 219 222 221 217 216 217 213 210 212 217 221 224 227 230 229 226 226 228 232 236 236 234 234 237 237
280 281 281 276 274 277 280 283 286 290 298 309 317 314 310 311 314 315 318 317 312 310 310 312 318 326 334 340 337 329 329 336 342 344 347 353 359 6 11 9 5 9 16 18 16 16 20 26 30 29 29 31 32 30 23 243 205 208 214 214 214 218 219 216 216 214 210 211 214 217 219 221 223 226 226 224 224 226 229 231 229 226 227 229 223
275 275 273 271 272 274 278 282 284 285 291 300 310 309 306 307 310 312 317 319 318 316 312 311 315 319 324 334 339 336 332 336 343 345 344 346 351 358 5 8 5 4 10 15 15 15 19 25 32 35 36 38 39 39 40 48 109 168 178 189 203 211 212 209 208 205 205 209 213 214 216 218 219 219 220 224 226 225 225 223 219 216 217 216 213
273 271 269 269 271 272 274 276 278 281 285 289 299 306 305 304 305 308 314 319 320 319 315 313 315 317 319 326 335 341 342 341 344 346 345 344 345 348 356 2 4 4 7 12 14 14 17 26 33 37 38 40 43 46 47 46 53 73 91 117 184 204 208 206 203 202 202 206 210 213 215 218 221 222 223 226 225 221 221 217 212 210 208 205 208
273 270 271 272 275 277 275 272 272 275 276 278 287 297 299 300 301 302 306 314 317 318 316 314 314 316 318 321 328 337 345 349 348 346 347 346 343 343 347 351 358 3 3 6 14 18 20 26 33 35 34 36 38 44 50 52 52 56 59 61 81 143 197 208 206 206 209 211 212 216 220 223 227 227 225 224 217 214 215 214 208 206 207 206 211
276 275 276 277 280 281 274 268 270 272 270 272 283 293 296 299 302 302 303 308 314 318 319 316 314 316 318 319 324 331 337 345 350 348 347 347 344 342 342 342 349 357 356 359 13 21 23 26 29 29 30 32 34 38 47 54 59 62 61 59 65 77 93 147 171 176 179 183 186 190 196 201 205 207 206 207 207 209 213 211 203 200 207 213 214
283 283 283 283 285 283 274 267 272 275 271 272 280 290 296 298 299 304 309 311 313 317 320 318 315 316 317 317 322 327 331 337 343 346 347 348 346 344 340 338 343 349 351 358 10 14 15 23 26 23 24 28 32 36 41 47 54 60 63 64 65 68 70 79 115 136 139 140 145 147 149 158 168 172 173 177 186 199 208 208 203 204 210 212 213
287 288 290 293 294 288 278 270 272 274 272 271 275 282 290 293 295 303 313 318 318 317 320 321 318 317 318 319 321 326 329 330 332 335 341 347 349 348 343 338 339 343 346 355 4 4 4 13 18 17 21 25 29 34 37 39 46 53 58 64 68 71 73 74 88 114 123 127 132 132 134 143 152 157 161 159 158 173 192 201 206 210 208 205 206
287 291 295 298 296 287 276 268 271 277 274 270 274 283 287 283 288 299 309 315 317 316 317 322 323 323 323 324 324 326 329 330 328 329 334 342 348 350 348 343 340 341 345 351 358 0 3 6 3 3 16 25 25 31 38 40 42 48 54 61 66 68 70 75 85 102 115 122 127 126 132 145 152 154 159 160 153 151 167 182 187 185 182 188 195
285 291 295 297 295 284 272 269 276 282 280 273 276 287 288 279 282 295 305 309 311 311 312 316 322 326 327 327 327 329 331 333 332 330 332 337 342 347 348 346 342 341 346 351 358 2 6 8 2 0 13 24 22 25 35 41 43 48 55 62 67 68 67 67 70 76 83 95 113 123 130 141 150 155 156 151 144 141 144 149 145 126 122 136 141
283 289 293 296 294 283 275 276 280 283 281 277 277 282 284 278 277 287 298 302 303 302 305 311 318 324 326 328 330 331 332 334 334 332 331 333 336 341 346 346 342 339 342 351 0 6 10 11 8 8 18 27 26 24 28 36 42 46 51 58 64 68 68 66 65 66 69 71 75 87 100 110 129 154 160 130 117 119 119 119 121 121 119 121 122
280 285 290 292 291 285 282 287 290 286 280 275 275 279 279 273 273 281 290 292 292 295 301 308 314 320 324 327 329 330 331 332 334 333 330 328 331 336 341 344 342 337 338 345 353 3 12 13 10 10 16 26 30 30 30 32 35 39 46 52 57 63 68 68 66 64 64 65 67 70 70 70 83 121 150 140 111 101 94 94 102 109 111 122 136
283 287 291 293 292 288 284 287 292 288 279 273 274 278 275 269 271 278 279 278 284 294 301 307 312 317 322 325 327 329 329 332 336 335 330 325 328 332 336 340 343 340 337 340 348 359 12 16 14 13 13 15 25 34 35 34 34 37 46 52 51 53 60 66 67 65 63 63 66 70 72 71 74 85 97 103 109 105 95 93 98 105 116 135 149
291 291 287 286 289 290 285 283 285 286 283 278 275 274 273 269 267 266 265 270 283 292 298 304 310 315 321 325 327 328 329 331 333 333 330 324 322 328 334 339 342 343 341 341 347 357 9 17 19 21 20 16 19 29 34 35 36 40 46 47 44 43 48 57 64 67 67 67 67 69 74 78 80 83 83 82 87 97 98 97 100 104 115 132 146
298 295 286 282 288 295 294 291 290 286 284 279 270 264 268 267 256 248 253 270 281 286 294 303 311 318 324 328 331 331 331 330 330 331 331 325 315 320 337 342 342 345 348 351 353 357 4 11 17 23 25 22 21 25 30 33 38 42 47 48 44 40 41 50 58 60 62 67 70 72 76 80 81 82 78 72 72 79 85 94 116 124 117 112 126
298 295 290 288 294 302 307 308 303 292 283 276 267 263 266 260 243 230 254 279 290 302 313 321 332 340 341 339 342 347 348 345 341 337 335 330 320 311 315 325 334 345 354 359 2 4 5 5 9 17 22 23 21 18 21 31 41 46 50 53 50 45 44 46 47 32 24 31 44 59 71 74 73 73 68 59 55 57 57 57 88 150 158 150 156
292 288 290 294 301 308 312 313 306 294 285 279 272 269 264 249 228 219 350 349 352 357 3 8 10 5 356 353 356 358 356 354 351 346 341 341 337 321 307 317 341 353 359 4 8 8 5 3 5 10 16 23 26 22 20 31 42 48 51 51 51 52 50 43 32 12 346 333 331 333 343 13 42 59 62 57 56 58 47 33 44 157 173 174 178
298 296 299 304 308 308 307 307 302 291 281 270 258 249 237 216 179 51 33 23 14 9 17 30 34 21 9 10 8 2 354 347 343 338 336 340 346 347 350 3 9 7 6 8 10 8 4 3 6 8 10 18 24 27 32 38 41 47 53 56 59 65 64 51 28 12 356 344 339 334 331 333 326 305 326 15 41 83 104 277 251 222 217 222 215
305 301 302 307 307 297 295 298 291 274 260 245 223 209 193 154 79 44 29 19 12 7 10 19 25 24 24 27 22 8 351 336 327 325 328 336 352 9 21 25 21 17 16 17 17 15 11 10 12 13 13 16 18 23 30 34 31 33 41 45 47 53 58 57 42 19 3 352 340 328 319 315 301 281 276 285 288 268 207 218 231 235 238 238 228
306 298 295 297 297 290 286 277 246 227 229 229 212 184 131 79 50 34 25 17 11 7 7 10 14 17 23 31 30 19 3 349 347 355 1 3 8 17 24 28 29 28 28 26 26 26 25 24 23 23 24 26 27 25 23 20 17 13 11 12 13 12 11 12 12 6 358 345 326 306 297 293 289 283 279 278 277 275 258 237 240 246 248 244 230
297 293 291 290 287 279 267 248 232 230 236 220 185 104 59 43 33 26 20 11 4 1 2 5 12 19 23 25 25 23 18 12 10 11 16 22 26 27 28 30 32 32 32 33 33 34 35 35 35 35 36 39 42 43 37 28 18 2 346 341 340 339 340 342 339 336 331 322 309 297 292 291 289 289 287 283 279 279 280 273 265 260 257 250 237
295 296 294 284 269 253 239 237 238 232 209 166 78 46 37 30 24 18 10 3 359 357 357 5 20 30 30 28 25 19 15 17 21 22 25 30 37 41 39 37 37 37 37 37 37 38 39 42 43 43 43 43 42 42 41 39 36 26 9 356 349 342 337 328 317 308 301 292 283 276 275 281 287 294 298 296 286 277 271 266 262 257 252 245 238
297 294 274 251 241 232 216 197 169 125 90 59 39 31 27 21 15 9 2 358 357 356 358 8 26 33 31 30 25 15 16 38 47 39 34 41 50 49 41 38 44 50 49 47 46 45 45 46 46 44 42 40 36 33 31 29 28 25 20 14 5 356 349 342 336 327 310 293 284 276 268 265 265 269 272 275 277 276 270 263 260 258 256 250 242
300 300 269 238 233 232 97 103 99 74 45 32 25 20 16 11 5 0 356 352 352 354 357 9 25 26 24 27 21 8 15 35 39 39 60 78 77 66 52 48 59 63 61 58 57 56 54 52 48 43 39 34 29 25 22 22 22 20 17 14 10 3 356 349 344 338 330 320 311 303 290 275 265 260 256 254 256 262 265 263 261 261 261 261 259
320 322 308 290 297 353 54 80 65 32 19 18 13 8 4 360 356 353 349 345 349 355 358 4 15 14 13 16 8 359 3 19 64 100 100 91 79 75 76 77 76 73 69 64 58 52 49 47 44 37 32 28 22 17 15 16 20 21 20 19 16 12 5 359 353 348 343 338 332 326 317 304 291 280 267 255 250 248 247 251 259 261 259 259 262
336 333 320 321 348 19 29 28 16 7 7 6 1 357 356 354 354 355 351 349 0 16 22 15 16 16 30 43 38 34 48 76 95 96 89 79 72 75 74 65 58 55 55 52 43 28 21 19 16 11 10 11 11 10 9 10 14 18 19 18 16 14 11 8 5 0 356 351 346 342 338 331 323 316 306 285 267 255 243 241 254 262 261 257 256
340 345 345 343 347 351 356 360 360 359 358 356 353 354 357 0 7 12 13 16 30 54 79 78 55 60 77 75 72 73 77 81 82 78 70 63 60 54 41 26 19 15 13 13 12 5 360 358 356 354 357 0 3 6 7 6 6 8 8 6 4 3 2 359 356 354 352 351 349 348 347 345 341 336 332 324 311 295 265 245 250 256 257 256 252
343 342 337 336 340 345 350 355 356 355 355 355 357 2 10 19 29 34 38 44 55 73 95 101 93 89 81 74 72 70 64 61 59 56 49 39 27 13 358 351 349 346 344 345 349 349 349 348 349 350 352 354 356 357 359 359 357 354 352 349 345 342 340 337 335 333 331 330 331 332 333 336 339 340 338 335 333 329 312 272 253 250 252 253 250
334 332 330 332 338 342 347 352 353 353 356 2 9 19 31 41 48 53 57 60 67 78 90 91 84 75 65 58 56 51 39 28 23 18 11 4 359 349 336 327 325 324 326 330 333 335 336 338 339 340 342 344 345 347 349 351 351 348 346 342 337 333 331 328 323 317 312 308 307 308 309 311 314 317 320 324 328 333 336 333 317 280 256 251 248
329 329 329 331 335 339 344 348 350 356 6 17 30 43 50 54 56 57 58 58 59 63 63 57 51 45 35 29 28 25 17 11 7 2 358 356 353 345 334 323 317 315 318 321 324 327 330 331 332 334 336 338 341 343 346 348 349 348 345 342 338 336 334 330 325 320 314 308 303 301 300 300 301 301 302 304 306 310 316 323 328 327 312 284 265
322 322 326 329 332 338 345 350 355 6 20 36 48 53 55 55 54 52 50 47 44 42 39 36 34 29 21 16 15 11 6 3 1 359 357 358 357 354 347 336 325 321 321 321 322 324 326 327 329 334 337 339 342 345 348 351 352 353 352 351 349 347 345 340 336 332 327 322 317 311 307 305 304 303 301 300 298 296 296 299 304 310 315 316 309
317 319 323 329 336 347 355 359 7 26 47 57 56 53 51 49 47 44 40 35 31 27 22 18 15 10 4 359 357 355 353 352 352 352 352 354 359 3 5 359 349 342 340 339 339 338 337 337 339 340 341 342 344 346 348 351 352 353 354 355 353 351 348 345 343 341 339 337 335 332 327 322 316 312 308 305 303 300 295 292 291 294 299 302 304